TimeCST,TemperatureF,Dew PointF,Humidity,Sea Level PressureIn,VisibilityMPH,Wind Direction,Wind SpeedMPH,Gust SpeedMPH,PrecipitationIn,Events,Conditions,WindDirDegrees,DateUTC
12:54 AM,42.1,28.0,58,30.00,10.0,South,4.6,-,0.00,,Overcast,170,2014-01-05 06:54:00
1:19 AM,42.1,28.0,58,30.00,10.0,Calm,Calm,-,N/A,,Overcast,0,2014-01-05 07:19:00
1:54 AM,37.9,30.0,73,30.00,10.0,NE,5.8,-,0.00,,Overcast,50,2014-01-05 07:54:00
2:54 AM,37.9,28.9,70,29.97,10.0,ENE,4.6,-,N/A,,Overcast,60,2014-01-05 08:54:00
3:54 AM,37.0,30.0,76,29.94,10.0,ENE,5.8,-,N/A,,Overcast,60,2014-01-05 09:54:00
4:54 AM,39.9,28.9,65,29.91,10.0,East,4.6,-,N/A,,Overcast,80,2014-01-05 10:54:00
5:54 AM,37.0,30.9,79,29.91,10.0,NE,6.9,-,0.00,,Overcast,50,2014-01-05 11:54:00
6:54 AM,37.0,32.0,82,29.89,10.0,East,4.6,-,0.00,,Overcast,80,2014-01-05 12:54:00
7:54 AM,37.0,33.1,86,29.85,6.0,East,9.2,-,0.01,Rain,Light Rain,100,2014-01-05 13:54:00
8:54 AM,37.9,34.0,86,29.81,5.0,East,5.8,-,0.01,Rain,Light Rain,80,2014-01-05 14:54:00
9:54 AM,37.9,34.0,86,29.79,7.0,NNW,6.9,-,0.02,Rain,Light Rain,340,2014-01-05 15:54:00
10:01 AM,37.9,35.1,89,29.77,8.0,North,6.9,-,0.00,Rain,Light Rain,360,2014-01-05 16:01:00
10:35 AM,37.9,35.1,89,29.76,2.0,North,5.8,-,0.06,Rain,Heavy Rain,10,2014-01-05 16:35:00
10:54 AM,37.9,35.1,89,29.75,2.5,NNE,8.1,-,0.13,Rain,Rain,20,2014-01-05 16:54:00
11:02 AM,37.9,35.1,89,29.73,2.5,NE,6.9,-,0.02,Rain,Rain,40,2014-01-05 17:02:00
11:19 AM,37.9,35.1,89,29.73,1.8,NE,3.5,-,0.08,Rain,Heavy Rain,40,2014-01-05 17:19:00
11:29 AM,37.0,35.1,93,29.71,2.0,ENE,6.9,-,0.11,Rain,Rain,60,2014-01-05 17:29:00
11:54 AM,37.0,35.1,93,29.68,1.5,East,10.4,-,0.20,Rain,Heavy Rain,100,2014-01-05 17:54:00
12:54 PM,39.0,37.0,93,29.64,1.5,Calm,Calm,-,0.16,Rain,Rain,0,2014-01-05 18:54:00
12:56 PM,39.0,36.0,89,29.63,1.5,Calm,Calm,-,0.00,Rain,Light Rain,0,2014-01-05 18:56:00
1:54 PM,39.0,37.0,93,29.60,1.5,ESE,3.5,-,0.05,Rain,Light Rain,110,2014-01-05 19:54:00
2:05 PM,39.0,37.0,93,29.60,1.5,SSE,3.5,-,0.01,Rain,Rain,150,2014-01-05 20:05:00
2:50 PM,39.2,37.4,93,29.61,2.5,WNW,11.5,-,0.10,Rain,Rain,300,2014-01-05 20:50:00
2:54 PM,39.0,36.0,89,29.62,3.0,WNW,13.8,-,0.11,Rain,Rain,300,2014-01-05 20:54:00
3:29 PM,34.0,32.0,92,29.65,8.0,NW,16.1,-,0.01,Snow,Light Snow,310,2014-01-05 21:29:00
3:52 PM,30.2,26.6,86,29.67,2.5,NW,21.9,33.4,0.01,,Overcast,320,2014-01-05 21:52:00
3:54 PM,30.9,27.0,85,29.69,2.0,NW,19.6,33.4,0.01,,Overcast,320,2014-01-05 21:54:00
3:57 PM,30.0,27.0,88,29.68,1.8,NW,23.0,32.2,0.00,,Overcast,310,2014-01-05 21:57:00
4:01 PM,30.0,26.1,85,29.69,2.0,NW,20.7,32.2,0.00,,Overcast,310,2014-01-05 22:01:00
4:09 PM,28.9,25.0,85,29.70,1.8,NW,21.9,33.4,0.00,Snow,Light Snow,320,2014-01-05 22:09:00
4:15 PM,28.9,25.0,85,29.70,0.8,NW,15.0,33.4,0.00,Snow,Light Snow,310,2014-01-05 22:15:00
4:32 PM,28.0,24.1,85,29.71,1.0,NW,16.1,23.0,0.01,Snow,Light Snow,310,2014-01-05 22:32:00
4:54 PM,27.0,21.9,81,29.76,1.0,NW,24.2,32.2,0.01,Snow,Light Snow,310,2014-01-05 22:54:00
5:16 PM,25.0,21.0,85,29.76,1.8,NW,19.6,31.1,0.01,Snow,Light Snow,310,2014-01-05 23:16:00
5:54 PM,23.0,19.0,85,29.82,1.2,WNW,19.6,39.1,0.02,Snow,Light Snow,300,2014-01-05 23:54:00
6:06 PM,21.9,17.1,82,29.82,2.0,NW,23.0,34.5,0.00,Snow,Light Snow,310,2014-01-06 00:06:00
6:17 PM,21.0,16.0,81,29.84,4.0,NW,24.2,36.8,0.00,Snow,Light Snow,310,2014-01-06 00:17:00
6:54 PM,19.9,14.0,78,29.91,5.0,NW,25.3,38.0,0.00,Snow,Light Snow,310,2014-01-06 00:54:00
7:50 PM,17.6,10.4,73,29.96,1.8,NW,18.4,43.7,0.00,Snow,Light Snow,320,2014-01-06 01:50:00
7:54 PM,18.0,12.0,78,29.97,1.8,NW,21.9,36.8,0.00,Snow,Light Snow,320,2014-01-06 01:54:00
8:04 PM,17.1,12.0,81,29.99,1.2,NW,19.6,33.4,0.00,Snow,Light Snow,320,2014-01-06 02:04:00
8:15 PM,17.1,10.9,77,29.99,1.8,NW,24.2,41.4,0.00,Snow,Light Snow,320,2014-01-06 02:15:00
8:26 PM,16.0,10.0,77,30.00,2.5,NW,18.4,35.7,0.00,Snow,Light Snow,320,2014-01-06 02:26:00
8:35 PM,16.0,10.0,77,30.01,2.0,NW,19.6,38.0,0.00,Snow,Light Snow,320,2014-01-06 02:35:00
8:48 PM,15.8,10.4,79,30.03,1.5,NW,20.7,31.1,0.00,Snow,Light Snow,310,2014-01-06 02:48:00
8:49 PM,16.0,10.0,77,30.05,1.5,NW,19.6,32.2,0.00,Snow,Light Snow,310,2014-01-06 02:49:00
9:02 PM,15.1,9.0,77,30.03,2.0,NW,21.9,36.8,0.00,Snow,Light Snow,310,2014-01-06 03:02:00
9:26 PM,14.0,7.0,74,30.06,4.0,NW,26.5,36.8,0.00,Snow,Light Snow,310,2014-01-06 03:26:00
9:54 PM,14.0,7.0,74,30.10,3.0,NW,24.2,36.8,0.00,Snow,Light Snow,310,2014-01-06 03:54:00
10:11 PM,12.9,6.1,74,30.09,2.0,NW,26.5,36.8,0.00,Snow,Light Snow,310,2014-01-06 04:11:00
10:22 PM,12.9,5.0,71,30.10,4.0,NW,26.5,41.4,0.00,Snow,Light Snow,320,2014-01-06 04:22:00
10:54 PM,12.0,5.0,73,30.14,3.0,NW,28.8,40.3,0.00,Snow,Light Snow,320,2014-01-06 04:54:00
11:21 PM,10.9,-0.0,61,30.14,10.0,NW,19.6,35.7,0.00,,Scattered Clouds,310,2014-01-06 05:21:00
11:54 PM,10.0,-0.9,61,30.19,10.0,WNW,24.2,34.5,0.00,,Mostly Cloudy,300,2014-01-06 05:54:00